Dewpoint
4 -0 -1 -4 -13 -18 -18 -23 -22 -20 -20 -19 -17 -17 -16 -8 -4 -6 -6 -6 -6 -7 -8 -8 -9 -9 -8 -7 -11 -10 -12 -11 -10 -11 -9 -12 -11 -12 -12 -11 -10 -12 -12 -10 -10 -9 -9 -14 -13 -11 -10 -11 -10 -10
4 3 1 -2 -9 -14 -6 -22 -20 -19 -19 -17 -17 -16 -16 -5 -5 -6 -5 -6 -6 -7 -9 -9 -8 -8 -8 -8 -6 -7 -8 -8 -7 -11 -13 -10 -9 -13 -12 -11 -14 -13 -14 -13 -11 -10 -13 -15 -15 -13 -12 -11 -11 -10
4 3 1 -1 -6 -5 -12 -22 -21 -17 -20 -17 -18 -17 -13 -12 -8 -8 -6 -6 -6 -7 -9 -11 -7 -8 -6 -8 -7 -6 -9 -9 -9 -7 -8 -10 -10 -8 -10 -12 -12 -15 -14 -13 -13 -14 -15 -15 -14 -13 -12 -11 -10 -9
4 3 1 -1 -5 -4 -10 -20 -18 -18 -17 -18 -19 -19 -20 -20 -18 -14 -7 -7 -7 -8 -9 -11 -8 -9 -9 -9 -9 -9 -9 -9 -10 -9 -8 -12 -10 -10 -11 -13 -14 -15 -15 -14 -15 -15 -16 -14 -15 -13 -11 -11 -10 -9
4 2 0 -1 -2 -4 -14 -19 -19 -16 -17 -21 -21 -22 -23 -23 -23 -13 -10 -8 -8 -9 -9 -9 -10 -9 -10 -9 -9 -9 -10 -9 -11 -10 -14 -15 -11 -12 -14 -16 -18 -15 -16 -16 -14 -16 -14 -14 -13 -12 -11 -10 -10 -9
3 1 -0 -1 -2 -9 -14 -17 -14 -16 -19 -21 -22 -22 -24 -24 -13 -11 -10 -9 -8 -8 -9 -11 -10 -9 -9 -9 -9 -10 -10 -8 -11 -17 -13 -10 -12 -12 -15 -14 -16 -15 -14 -14 -15 -14 -13 -13 -12 -10 -10 -10 -10 -9
2 -0 -0 -1 -5 -7 -10 -11 -16 -13 -17 -21 -22 -24 -21 -11 -10 -11 -9 -8 -7 -8 -9 -10 -11 -10 -11 -12 -10 -7 -7 -7 -12 -14 -17 -14 -17 -13 -15 -14 -15 -14 -14 -14 -13 -13 -14 -12 -11 -10 -10 -10 -10 -10
0 -0 -0 -3 -4 -6 -8 -15 -10 -13 -17 -21 -23 -16 -6 -7 -9 -8 -10 -9 -8 -8 -8 -14 -12 -14 -13 -13 -11 -7 -8 -8 -10 -12 -17 -17 -17 -16 -17 -16 -15 -14 -14 -14 -13 -12 -12 -11 -10 -10 -10 -10 -10 -10
-0 -0 -2 -3 -5 -7 -11 -8 -10 -15 -20 -21 -8 -5 -7 -8 -9 -10 -12 -8 -9 -9 -9 -12 -13 -15 -14 -12 -11 -10 -8 -11 -10 -14 -16 -16 -18 -18 -17 -13 -14 -14 -13 -13 -13 -11 -11 -11 -11 -10 -10 -10 -10 -10
-1 -1 -3 -4 -5 -6 -10 -8 -14 -18 -16 -13 -10 -7 -10 -10 -12 -12 -8 -9 -11 -13 -13 -13 -12 -14 -14 -13 -11 -10 -9 -10 -13 -13 -14 -17 -20 -14 -14 -13 -13 -13 -13 -13 -13 -12 -12 -11 -11 -10 -10 -10 -10 -10
-1 -3 -4 -5 -5 -8 -6 -14 -15 -11 -16 -15 -14 -13 -12 -14 -11 -11 -14 -15 -14 -14 -13 -14 -14 -15 -15 -13 -14 -10 -12 -12 -14 -13 -11 -19 -18 -14 -13 -13 -13 -13 -13 -12 -12 -12 -11 -11 -11 -10 -10 -10 -10 -10
-3 -4 -5 -6 -9 -6 -13 -13 -16 -20 -22 -22 -20 -17 -16 -16 -16 -17 -20 -17 -16 -14 -14 -15 -16 -16 -16 -12 -11 -11 -13 -15 -13 -14 -16 -18 -19 -13 -13 -13 -13 -13 -12 -12 -11 -11 -11 -11 -10 -10 -10 -10 -10 -10
-4 -5 -6 -9 -6 -11 -13 -15 -20 -22 -23 -20 -19 -19 -19 -20 -19 -22 -22 -18 -17 -14 -15 -15 -16 -15 -14 -12 -11 -13 -13 -13 -12 -15 -16 -18 -13 -13 -13 -13 -13 -13 -12 -12 -11 -11 -11 -11 -10 -10 -10 -11 -10 -10
-5 -9 -8 -5 -10 -12 -15 -20 -22 -23 -22 -22 -22 -19 -17 -18 -18 -18 -18 -17 -16 -15 -15 -14 -14 -13 -12 -12 -11 -13 -12 -13 -15 -16 -16 -20 -13 -13 -13 -13 -13 -13 -12 -12 -11 -11 -11 -11 -11 -11 -11 -10 -10 -10
-10 -6 -5 -6 -9 -14 -20 -22 -23 -22 -23 -22 -22 -18 -18 -17 -15 -16 -15 -15 -15 -15 -14 -15 -14 -13 -13 -14 -12 -14 -14 -14 -13 -15 -18 -14 -13 -13 -13 -13 -13 -13 -12 -12 -12 -11 -11 -11 -11 -11 -11 -11 -11 -11
-5 -5 -5 -6 -11 -18 -21 -22 -22 -22 -22 -21 -19 -16 -16 -15 -14 -14 -15 -16 -15 -14 -15 -14 -16 -19 -17 -14 -14 -16 -16 -15 -16 -16 -13 -14 -13 -13 -13 -13 -13 -13 -13 -12 -12 -12 -12 -11 -11 -11 -11 -11 -11 -11
-5 -5 -5 -9 -16 -19 -21 -22 -22 -21 -20 -18 -17 -17 -17 -17 -17 -17 -16 -16 -15 -15 -16 -15 -18 -17 -15 -17 -16 -15 -16 -16 -14 -13 -13 -13 -13 -14 -14 -13 -13 -13 -13 -12 -12 -12 -12 -12 -12 -11 -11 -11 -11 -11
-5 -5 -7 -15 -19 -20 -20 -21 -21 -19 -18 -17 -16 -16 -16 -16 -17 -16 -16 -15 -15 -15 -14 -17 -14 -17 -18 -18 -17 -18 -14 -14 -13 -13 -13 -14 -14 -13 -14 -14 -14 -13 -13 -13 -13 -13 -12 -12 -12 -12 -12 -12 -11 -11
-7 -8 -14 -18 -19 -20 -20 -20 -19 -16 -14 -16 -15 -15 -15 -15 -16 -17 -16 -15 -14 -14 -14 -14 -20 -20 -17 -17 -15 -14 -14 -14 -14 -13 -14 -14 -14 -14 -14 -14 -14 -14 -13 -13 -13 -13 -13 -13 -13 -12 -12 -12 -12 -12
-7 -12 -17 -18 -19 -21 -20 -16 -17 -17 -15 -15 -15 -15 -14 -15 -15 -16 -15 -14 -14 -14 -14 -19 -18 -16 -16 -15 -15 -14 -14 -14 -13 -13 -14 -14 -15 -15 -14 -14 -14 -14 -14 -13 -13 -13 -13 -13 -13 -13 -13 -13 -13 -13
-14 -16 -16 -17 -20 -21 -17 -13 -13 -13 -14 -14 -14 -14 -14 -14 -14 -15 -15 -14 -14 -15 -15 -16 -16 -16 -16 -16 -15 -13 -13 -13 -13 -13 -13 -15 -15 -15 -15 -14 -14 -14 -14 -14 -14 -13 -13 -13 -13 -13 -13 -13 -13 -13
-15 -16 -16 -19 -20 -19 -16 -15 -14 -13 -12 -13 -13 -13 -13 -14 -14 -14 -15 -15 -15 -16 -16 -17 -17 -16 -16 -16 -14 -13 -13 -13 -13 -14 -15 -15 -16 -16 -15 -15 -14 -14 -14 -14 -14 -14 -14 -14 -13 -13 -13 -13 -13 -13
-16 -17 -20 -21 -21 -19 -18 -13 -14 -13 -14 -14 -14 -14 -15 -14 -15 -15 -16 -15 -16 -16 -17 -17 -17 -18 -17 -15 -14 -13 -13 -13 -13 -14 -15 -16 -16 -17 -16 -16 -16 -16 -15 -15 -14 -14 -14 -14 -14 -14 -14 -14 -14 -13
-18 -20 -21 -21 -19 -17 -15 -15 -15 -15 -15 -16 -20 -18 -19 -15 -16 -16 -21 -16 -16 -16 -16 -16 -17 -17 -16 -14 -14 -14 -13 -13 -13 -15 -15 -16 -17 -17 -17 -17 -18 -18 -17 -17 -16 -16 -15 -14 -14 -13 -13 -13 -13 -13
-21 -20 -19 -17 -16 -16 -19 -18 -17 -17 -19 -25 -21 -20 -18 -17 -21 -23 -20 -16 -15 -15 -15 -16 -16 -16 -15 -15 -14 -14 -13 -13 -14 -16 -16 -17 -17 -18 -19 -19 -18 -18 -17 -17 -18 -18 -17 -17 -16 -15 -14 -13 -13 -13
-19 -17 -18 -17 -16 -19 -18 -18 -21 -20 -23 -23 -23 -19 -18 -19 -20 -18 -18 -14 -14 -14 -15 -16 -16 -15 -15 -14 -14 -14 -13 -14 -15 -16 -17 -19 -20 -19 -19 -18 -17 -17 -17 -17 -18 -18 -18 -18 -17 -17 -17 -16 -15 -15
-19 -17 -15 -16 -16 -17 -17 -17 -17 -18 -22 -19 -21 -21 -22 -18 -19 -17 -15 -15 -14 -14 -15 -15 -15 -14 -13 -14 -13 -13 -14 -16 -14 -16 -18 -19 -20 -19 -18 -17 -17 -17 -18 -18 -18 -18 -18 -18 -18 -18 -17 -17 -17 -17
-15 -15 -18 -15 -15 -15 -17 -18 -21 -20 -19 -17 -17 -19 -19 -18 -17 -17 -17 -16 -14 -14 -15 -15 -14 -14 -14 -13 -13 -13 -13 -14 -13 -13 -16 -19 -20 -19 -18 -17 -17 -18 -18 -18 -19 -19 -19 -19 -19 -19 -19 -19 -18 -18
-15 -15 -15 -15 -15 -15 -15 -16 -16 -16 -16 -16 -18 -19 -17 -17 -16 -16 -16 -16 -16 -14 -14 -14 -14 -13 -13 -13 -13 -13 -13 -13 -13 -13 -16 -20 -20 -19 -18 -18 -17 -18 -19 -19 -20 -20 -20 -20 -21 -21 -20 -20 -20 -20
-15 -15 -16 -15 -16 -18 -15 -15 -15 -16 -16 -16 -16 -16 -16 -17 -17 -16 -16 -16 -16 -16 -14 -13 -13 -13 -13 -13 -13 -13 -13 -13 -13 -13 -16 -19 -19 -18 -18 -18 -18 -18 -19 -19 -19 -18 -18 -18 -18 -19 -20 -21 -21 -22
-15 -15 -16 -15 -15 -15 -15 -15 -15 -16 -16 -16 -16 -16 -16 -16 -16 -17 -17 -16 -16 -16 -16 -15 -13 -13 -13 -13 -13 -13 -13 -13 -13 -13 -17 -18 -18 -18 -17 -17 -17 -18 -18 -18 -18 -18 -17 -18 -18 -20 -22 -24 -25 -26
-15 -15 -16 -19 -16 -16 -16 -16 -16 -17 -17 -17 -17 -17 -17 -17 -16 -17 -16 -16 -16 -16 -16 -16 -15 -13 -13 -13 -13 -13 -13 -13 -13 -13 -15 -17 -18 -18 -18 -15 -13 -15 -17 -17 -17 -17 -17 -17 -19 -23 -27 -30 -30 -30
-16 -16 -16 -16 -16 -16 -17 -17 -17 -17 -17 -17 -17 -17 -17 -17 -16 -16 -16 -16 -15 -15 -15 -16 -16 -15 -14 -13 -13 -13 -13 -13 -13 -13 -13 -16 -17 -18 -16 -13 -13 -13 -14 -15 -16 -17 -17 -17 -18 -21 -25 -29 -30 -30
Wind_Speed
37 34 28 26 23 20 15 13 11 8 6 4 4 4 4 3 5 7 5 3 5 5 11 11 5 5 3 2 2 7 5 6 4 6 3 2 1 2 2 2 1 1 3 3 4 4 4 24 8 7 11 23 30 32
41 36 29 29 26 23 16 15 11 8 6 5 4 5 4 4 5 7 6 7 7 8 9 14 18 15 14 12 7 3 1 2 2 3 1 2 2 1 1 3 2 3 3 2 1 3 11 24 10 17 25 27 30 34
45 37 31 31 28 24 18 16 11 9 6 5 5 5 6 7 7 9 8 6 7 7 8 4 2 1 1 5 7 4 2 2 1 5 3 2 2 1 1 3 1 3 4 2 5 2 14 23 13 32 34 35 33 29
46 36 34 33 32 24 19 15 11 9 6 5 5 6 7 9 10 9 6 5 4 4 2 1 0 1 2 5 6 7 8 6 7 2 2 1 1 6 1 1 2 2 5 4 5 6 24 3 32 34 35 32 31 27
44 37 38 34 28 25 19 14 11 9 6 6 5 6 8 9 8 6 4 2 2 1 2 5 3 3 4 9 12 12 11 8 4 1 2 1 1 3 2 2 1 2 2 0 4 16 13 26 35 31 31 29 23 21
43 41 39 31 28 24 19 15 12 8 7 6 5 6 7 6 2 2 1 2 2 3 3 2 2 1 2 6 9 12 11 8 2 1 2 3 2 2 1 2 2 7 12 12 9 20 24 28 25 26 26 23 19 17
45 43 37 30 29 25 19 16 12 6 9 5 4 4 3 1 0 1 2 1 1 5 2 4 5 1 6 7 4 4 5 6 4 3 3 3 2 2 1 2 8 17 17 17 6 17 14 15 24 22 19 17 16 15
46 41 33 32 30 25 20 15 8 10 6 4 2 3 7 3 3 2 2 2 3 2 1 2 3 2 7 4 3 2 2 4 3 3 3 3 3 1 1 5 18 17 18 2 15 12 14 16 15 14 14 15 18 20
44 37 34 32 29 24 19 12 11 8 6 4 9 12 5 2 2 1 0 2 2 0 1 2 2 3 9 4 4 3 2 1 2 1 1 3 1 1 5 12 17 16 13 18 16 10 9 10 11 12 14 15 16 18
41 35 34 32 25 22 16 13 11 9 9 9 9 6 3 3 2 2 1 1 1 1 3 4 2 2 7 6 3 6 1 0 0 2 4 2 3 3 5 11 12 13 12 11 13 14 14 12 12 12 13 13 13 15
36 36 34 28 24 19 14 14 12 14 12 10 6 4 7 6 3 1 1 2 4 3 3 4 3 3 4 2 3 2 2 1 2 3 1 2 3 3 8 8 9 8 8 7 6 6 6 6 8 10 12 12 13 13
37 35 29 25 21 16 16 14 13 12 7 7 5 10 7 3 2 3 1 3 2 1 2 2 3 5 4 2 3 3 1 3 3 1 2 3 3 3 6 7 7 6 5 5 5 6 6 7 8 9 10 11 11 10
37 31 27 23 18 17 14 14 12 10 9 10 3 4 2 1 5 4 2 3 2 2 2 4 5 3 3 3 4 2 2 2 1 2 3 4 3 1 4 5 5 5 5 5 6 7 8 10 10 11 12 11 10 13
33 30 25 20 19 17 16 15 14 15 6 4 5 3 2 2 1 3 3 3 3 2 2 5 3 2 2 2 1 1 1 2 2 2 4 2 4 3 3 3 3 4 5 5 7 7 8 9 11 11 11 12 13 16
31 26 22 20 18 17 18 17 17 14 4 3 4 2 2 4 4 7 4 2 2 2 1 1 2 2 3 2 1 2 4 3 4 4 2 5 4 3 2 1 1 2 3 4 5 6 7 8 9 11 11 12 14 15
28 25 23 20 19 19 17 17 15 8 5 3 4 5 6 4 4 5 5 4 3 3 1 1 1 3 3 1 1 4 4 4 3 2 4 4 3 3 3 2 1 1 2 3 5 6 6 6 8 10 10 12 14 15
31 27 23 21 22 21 19 15 8 4 4 4 3 7 8 7 6 6 6 6 6 3 2 3 2 7 2 2 3 3 4 2 2 5 5 4 3 2 2 2 1 0 1 3 4 5 6 7 6 6 9 11 11 13
24 26 23 21 21 20 13 5 4 4 3 4 4 9 7 7 7 5 6 7 7 5 4 3 2 1 4 4 3 3 4 3 5 6 5 4 3 2 2 2 1 2 3 4 4 4 5 6 6 8 8 8 9 10
22 24 23 23 21 8 4 3 3 4 3 5 9 12 6 5 5 4 6 7 7 6 2 3 2 3 4 7 6 4 6 8 8 8 6 5 3 2 2 3 3 2 3 4 4 5 6 6 6 6 7 7 7 9
26 25 26 23 13 4 3 4 4 3 4 6 8 9 5 3 7 6 7 8 8 4 5 3 8 6 5 5 5 4 4 9 9 9 8 6 4 4 3 3 3 3 3 4 4 4 4 4 5 6 7 7 7 9
25 25 23 15 6 3 4 5 3 4 7 4 9 8 3 6 6 7 7 10 8 5 7 12 15 10 10 8 6 6 8 9 10 9 6 7 6 4 3 4 3 3 3 3 3 3 4 4 5 5 6 6 7 7
25 23 19 9 3 3 4 4 6 7 3 6 9 5 3 3 4 5 6 9 7 9 10 9 9 9 11 9 8 8 8 9 11 9 6 7 8 7 6 5 5 4 3 3 4 4 4 4 5 5 5 6 6 7
24 18 7 3 3 3 4 7 2 4 3 7 5 2 2 3 3 4 4 7 9 11 14 14 11 10 10 10 9 9 10 12 12 10 7 8 7 7 6 6 5 4 4 4 3 4 4 4 5 6 6 5 6 7
18 5 3 3 3 4 8 3 3 3 4 2 2 1 2 3 3 2 3 6 9 8 8 9 10 11 11 12 10 10 11 13 12 10 9 8 8 8 7 6 5 5 5 5 4 4 5 5 5 6 7 6 6 7
4 3 2 4 4 4 3 2 1 2 2 2 2 2 2 4 1 2 3 5 7 9 9 10 11 11 11 11 11 11 12 12 11 10 9 9 9 8 8 7 6 5 5 5 5 5 5 5 5 6 6 7 6 7
5 2 2 2 2 3 5 3 3 5 3 1 5 2 3 3 1 5 3 3 6 8 10 11 11 12 12 11 11 12 12 12 12 10 10 9 9 7 7 7 6 6 6 6 6 6 5 5 6 6 6 6 6 6
3 1 2 3 4 5 4 3 4 2 3 5 4 3 2 1 5 4 3 4 6 5 7 8 9 10 9 11 11 11 11 11 11 9 9 9 9 8 7 6 6 6 6 6 6 6 6 5 5 6 6 6 5 5
4 2 3 5 2 3 4 3 3 5 3 4 6 2 6 7 4 2 1 4 3 6 8 10 11 10 8 9 11 13 14 14 12 11 8 9 9 8 7 6 6 6 6 7 7 7 7 6 6 6 5 5 5 4
3 4 4 2 2 2 2 3 2 2 3 5 4 3 4 4 3 3 3 5 4 6 9 10 12 11 10 10 11 12 12 13 13 13 12 10 10 8 8 7 6 7 7 7 7 6 6 6 6 6 5 5 4 4
2 3 2 2 2 2 1 3 3 4 6 9 8 8 11 15 14 10 10 10 8 6 8 11 12 12 12 12 13 14 14 14 13 12 9 8 8 8 8 8 7 7 7 7 6 6 6 5 4 4 3 3 2 2
3 2 2 0 1 2 3 6 9 12 13 11 14 17 20 18 23 22 19 19 19 17 15 15 17 16 15 14 13 13 14 14 15 14 12 11 10 9 9 9 9 9 8 8 7 7 6 5 5 4 4 3 3 3
2 1 1 1 1 3 6 3 4 3 3 4 4 5 6 6 5 4 5 6 8 10 15 17 17 17 16 14 14 13 13 13 15 15 14 13 12 11 11 11 11 10 10 9 8 8 8 7 7 6 6 5 5 4
2 1 1 1 1 1 3 6 3 3 4 3 3 3 4 4 5 3 6 6 6 6 8 12 16 18 19 18 16 15 14 14 13 14 14 15 16 14 13 13 12 12 11 9 9 9 9 8 8 7 7 6 6 6
Wind_Direction
218 214 215 206 207 203 201 220 224 235 256 272 292 301 308 310 285 307 316 300 282 266 282 276 259 244 271 248 159 315 359 1 13 30 27 306 1 288 356 309 350 278 348 341 334 2 12 7 339 31 303 312 322 324
219 218 212 203 203 197 192 215 218 228 242 255 279 288 294 295 292 289 282 293 285 268 277 291 296 288 268 264 277 282 292 295 359 40 334 283 277 90 131 294 40 0 164 240 269 299 344 330 291 322 333 327 327 327
218 216 207 198 198 198 190 208 210 221 238 254 273 281 291 296 286 288 285 275 275 274 288 293 19 146 226 217 223 263 261 352 235 304 279 243 260 7 274 256 334 341 14 238 338 38 322 321 353 343 340 333 339 337
215 212 200 195 200 183 188 201 203 217 229 252 264 283 294 298 295 300 270 267 265 275 286 270 109 298 231 207 222 242 279 291 316 291 250 237 320 12 316 239 118 249 345 318 269 302 331 205 326 333 334 344 342 348
211 205 194 200 194 173 187 191 202 211 225 245 267 288 297 299 302 290 290 228 211 251 278 293 320 27 218 241 245 257 283 267 304 222 79 235 327 9 51 59 355 43 210 136 268 308 294 289 318 336 337 334 344 347
208 197 194 195 184 166 180 191 201 203 234 246 269 292 296 302 292 271 103 158 164 325 303 342 309 243 279 275 270 274 278 234 219 202 150 150 116 359 66 250 221 330 313 288 262 299 301 305 325 340 337 343 349 357
195 189 187 191 162 170 178 191 191 214 237 243 272 287 259 204 236 114 108 86 240 313 276 310 338 313 321 299 273 284 237 214 195 171 163 160 163 8 87 239 316 335 324 317 301 328 315 329 329 344 346 355 7 17
189 186 189 171 164 169 181 181 190 228 223 235 249 158 165 154 115 120 141 218 265 254 231 91 285 336 356 319 316 293 235 192 160 170 157 153 133 58 298 268 326 337 334 315 338 333 312 325 340 352 5 13 23 29
184 183 177 162 163 172 173 182 212 201 194 185 148 174 166 201 188 142 342 104 100 171 158 82 109 260 344 339 302 302 277 64 172 131 134 130 310 238 249 315 326 336 328 317 335 343 357 356 359 12 22 28 34 36
181 183 162 161 165 168 173 198 191 177 166 170 161 171 176 170 172 151 92 183 183 62 57 82 360 277 338 335 323 337 310 255 208 271 125 76 255 253 325 325 323 328 328 328 332 355 6 10 16 27 34 38 43 46
180 162 157 160 163 171 188 193 176 165 171 174 175 154 149 151 141 139 151 44 353 48 28 20 24 307 338 352 283 329 281 323 47 267 177 326 302 260 333 340 340 340 342 348 346 354 356 5 30 43 46 47 55 59
159 153 156 164 166 181 192 178 177 170 175 169 146 131 139 149 122 96 323 323 44 189 7 8 328 292 300 296 274 302 199 33 246 124 68 307 254 337 351 359 357 4 19 34 43 50 52 55 58 58 59 59 62 74
151 154 161 164 178 187 175 170 165 171 161 142 130 128 129 43 53 113 291 310 350 157 52 341 319 300 299 262 267 31 38 237 342 43 232 224 158 27 15 9 14 25 45 60 70 73 76 71 69 67 66 67 76 74
156 157 162 171 184 175 164 168 170 165 158 153 157 77 95 322 220 176 177 175 160 152 7 343 297 274 299 293 265 72 255 51 18 356 237 244 155 95 41 16 22 44 58 69 75 73 74 72 69 70 74 71 74 72
155 160 166 175 168 160 162 162 160 167 164 145 135 153 194 146 133 156 152 151 171 174 13 330 288 282 281 308 311 4 11 272 213 232 227 150 156 99 68 53 41 56 69 82 86 82 75 76 82 82 78 73 78 78
154 160 174 167 160 159 158 157 159 160 144 128 120 112 142 153 159 173 183 180 188 174 292 202 98 44 279 200 19 221 131 230 254 234 165 154 149 115 94 85 67 67 77 86 89 92 97 96 86 81 83 82 80 77
167 162 173 165 161 156 154 152 155 144 124 126 115 140 137 111 135 157 168 174 172 180 182 138 110 217 306 16 265 200 207 226 283 168 166 171 159 134 111 74 55 78 121 115 103 97 95 92 89 94 88 83 84 82
170 170 167 164 154 150 149 148 150 127 107 126 159 155 141 135 131 154 174 181 181 193 182 211 190 142 201 194 246 234 211 202 175 191 187 174 152 135 111 124 128 163 141 123 111 101 98 95 99 94 90 88 92 94
167 164 153 153 153 145 142 136 144 113 112 142 144 147 138 150 161 159 168 173 185 194 208 208 116 213 230 217 225 241 226 208 196 197 196 185 166 164 146 144 136 145 146 132 125 114 99 97 98 97 97 98 103 100
151 155 154 154 155 139 113 96 115 108 137 154 153 154 147 169 173 181 181 187 190 204 216 213 219 223 226 231 232 241 204 193 206 197 200 194 186 189 177 167 158 143 149 148 144 131 119 119 117 109 107 107 109 106
154 151 155 155 140 116 103 112 99 96 128 143 153 157 170 182 194 190 195 201 204 225 236 236 239 248 250 247 234 221 194 209 216 217 224 203 189 183 170 162 167 158 148 149 150 153 158 158 133 117 115 117 114 110
150 154 153 151 121 100 90 96 112 122 129 142 156 179 184 187 183 192 194 202 235 234 224 245 254 238 240 232 222 218 208 214 208 213 223 204 190 184 178 164 164 154 150 154 150 154 161 157 148 140 128 124 128 126
146 150 134 121 107 83 100 134 112 138 128 171 162 162 183 187 169 185 247 234 250 251 243 246 249 250 237 218 216 214 214 205 204 210 215 195 189 185 180 174 170 165 161 151 157 150 143 142 138 137 144 148 140 131
142 140 111 95 86 108 135 129 133 134 136 147 110 267 257 162 183 220 248 249 238 246 243 245 245 234 220 210 209 210 211 207 205 211 200 195 190 181 170 165 167 172 168 159 151 143 135 134 135 135 136 140 143 142
137 43 113 71 110 115 79 67 27 132 167 218 90 308 183 171 125 240 237 261 258 253 238 230 225 219 221 212 211 209 207 205 206 202 193 183 183 183 174 166 163 164 167 165 155 154 139 141 155 138 135 138 138 137
76 48 67 109 125 143 176 141 191 194 130 143 225 168 152 130 83 247 234 263 289 264 232 224 213 204 206 209 213 208 201 193 191 190 188 181 175 177 178 175 174 175 172 165 162 155 154 160 152 142 137 140 139 136
97 182 121 126 132 142 104 114 139 148 160 198 186 149 102 173 245 250 254 297 288 235 205 203 209 208 210 204 200 195 190 190 185 188 187 187 187 186 184 187 185 177 170 164 157 149 143 141 145 147 151 155 155 153
90 124 152 160 141 160 137 145 160 202 221 165 149 191 190 199 236 206 274 329 260 212 203 196 191 195 204 209 205 200 192 192 192 194 196 198 194 192 193 193 186 176 170 164 151 141 136 136 138 136 137 141 146 149
100 123 128 108 131 179 207 192 217 193 195 192 195 241 249 248 272 280 273 313 319 241 221 214 209 209 209 204 202 205 207 208 206 199 196 204 204 202 200 195 188 182 176 165 153 146 145 143 141 134 133 134 132 127
99 107 106 116 105 250 236 221 236 246 246 238 256 270 274 279 285 279 283 284 282 264 232 225 219 221 222 222 218 215 213 212 212 207 212 213 204 202 203 201 195 189 185 181 179 180 179 176 173 172 172 173 169 167
102 100 77 121 243 237 277 287 280 275 270 265 264 261 268 283 287 287 272 264 257 250 240 231 224 219 218 218 219 220 220 217 214 207 210 211 208 207 204 201 199 198 198 199 200 203 208 209 209 211 213 216 221 233
117 126 104 21 254 299 306 295 282 271 272 268 268 258 283 276 267 271 291 298 280 262 242 235 232 226 226 225 224 222 222 218 216 213 215 216 214 215 211 208 206 204 205 208 211 214 218 221 223 227 230 234 240 248
134 157 215 278 268 292 314 322 290 296 257 268 270 277 264 262 266 285 316 322 325 307 270 238 222 221 221 223 222 221 222 220 219 217 215 215 216 215 216 222 220 216 213 217 224 227 228 230 234 238 243 247 255 264
Height
1495 1499 1505 1511 1516 1519 1523 1526 1528 1529 1530 1530 1531 1531 1532 1532 1532 1532 1531 1531 1532 1531 1528 1526 1527 1526 1527 1528 1530 1522 1521 1517 1515 1521 1522 1527 1523 1523 1523 1511 1515 1520 1518 1502 1491 1490 1483 1488 1481 1483 1487 1475 1467 1456
1488 1493 1499 1505 1511 1515 1519 1523 1525 1527 1528 1528 1529 1530 1530 1530 1530 1529 1529 1529 1529 1529 1527 1525 1524 1524 1524 1525 1525 1523 1524 1522 1521 1523 1526 1521 1517 1523 1522 1522 1516 1521 1521 1520 1508 1496 1495 1493 1491 1487 1482 1474 1463 1455
1480 1487 1494 1499 1505 1511 1517 1520 1522 1524 1526 1527 1528 1528 1528 1528 1527 1527 1526 1526 1527 1526 1523 1522 1521 1521 1521 1522 1524 1525 1523 1522 1522 1522 1522 1520 1521 1514 1518 1520 1518 1518 1517 1517 1511 1500 1496 1490 1488 1484 1477 1473 1465 1460
1474 1482 1488 1494 1499 1507 1514 1517 1519 1522 1524 1525 1525 1525 1525 1525 1524 1524 1524 1523 1524 1525 1524 1523 1521 1521 1520 1521 1522 1522 1521 1521 1521 1519 1520 1520 1520 1517 1517 1518 1521 1521 1519 1517 1509 1499 1492 1487 1487 1483 1478 1470 1463 1458
1468 1476 1483 1489 1496 1502 1510 1514 1517 1520 1521 1522 1522 1522 1522 1522 1521 1521 1521 1521 1522 1525 1523 1520 1520 1519 1519 1519 1520 1520 1519 1519 1518 1518 1519 1523 1519 1519 1519 1519 1523 1519 1520 1523 1512 1503 1503 1490 1484 1481 1475 1472 1468 1462
1463 1470 1477 1485 1492 1500 1507 1512 1515 1517 1519 1519 1519 1520 1520 1519 1519 1520 1520 1522 1522 1523 1523 1523 1520 1519 1519 1519 1519 1517 1516 1516 1517 1517 1517 1518 1518 1520 1523 1520 1515 1516 1515 1515 1510 1504 1498 1489 1484 1480 1474 1469 1465 1459
1458 1466 1475 1482 1490 1497 1504 1508 1512 1515 1516 1516 1516 1516 1517 1517 1518 1520 1522 1523 1522 1523 1524 1522 1519 1518 1517 1517 1515 1513 1512 1514 1514 1514 1515 1516 1517 1519 1520 1520 1513 1512 1509 1506 1505 1501 1493 1489 1484 1478 1474 1468 1462 1457
1455 1463 1472 1479 1487 1495 1500 1505 1509 1512 1514 1514 1514 1515 1515 1517 1518 1520 1521 1521 1521 1521 1523 1523 1520 1518 1517 1516 1515 1513 1512 1512 1513 1513 1514 1514 1517 1518 1524 1513 1510 1508 1504 1501 1501 1499 1494 1489 1485 1480 1475 1469 1464 1458
1455 1463 1470 1479 1486 1491 1496 1502 1505 1508 1510 1512 1513 1514 1516 1518 1518 1520 1520 1520 1520 1524 1521 1521 1526 1529 1519 1518 1515 1513 1511 1513 1513 1512 1513 1515 1519 1523 1514 1511 1508 1506 1504 1500 1496 1494 1491 1488 1485 1480 1476 1472 1468 1463
1455 1462 1472 1479 1486 1491 1496 1499 1501 1504 1507 1509 1513 1514 1514 1516 1518 1521 1520 1521 1521 1521 1521 1522 1524 1524 1522 1518 1516 1515 1512 1513 1517 1515 1514 1516 1520 1512 1512 1510 1507 1504 1502 1499 1496 1492 1489 1487 1485 1481 1478 1476 1473 1469
1456 1464 1472 1480 1487 1491 1495 1496 1499 1502 1505 1508 1510 1511 1513 1515 1518 1519 1520 1521 1523 1524 1524 1524 1523 1524 1521 1523 1520 1516 1515 1513 1522 1518 1515 1525 1523 1511 1510 1508 1506 1504 1501 1499 1497 1494 1493 1491 1488 1485 1483 1481 1477 1476
1459 1466 1474 1480 1486 1490 1492 1495 1498 1501 1503 1506 1508 1510 1513 1514 1516 1519 1527 1526 1525 1527 1525 1524 1526 1524 1522 1521 1520 1517 1517 1517 1520 1514 1519 1527 1513 1510 1508 1507 1505 1503 1502 1500 1498 1496 1494 1493 1490 1488 1487 1485 1483 1482
1458 1467 1473 1480 1485 1488 1491 1494 1497 1500 1503 1505 1507 1509 1511 1516 1522 1524 1530 1528 1528 1524 1524 1524 1525 1523 1522 1521 1518 1517 1518 1519 1514 1521 1521 1515 1509 1508 1507 1506 1505 1504 1502 1501 1499 1498 1497 1495 1493 1492 1490 1489 1488 1485
1460 1465 1473 1477 1482 1485 1489 1492 1495 1499 1502 1503 1505 1512 1515 1519 1518 1519 1521 1520 1521 1521 1522 1522 1523 1522 1521 1520 1517 1519 1515 1515 1526 1529 1518 1509 1508 1508 1507 1507 1506 1505 1504 1503 1501 1500 1499 1498 1496 1495 1495 1493 1490 1487
1461 1468 1473 1475 1478 1484 1487 1490 1493 1497 1500 1501 1502 1510 1515 1513 1514 1515 1518 1520 1520 1521 1521 1521 1522 1522 1521 1521 1517 1517 1519 1522 1513 1512 1508 1506 1507 1507 1507 1507 1507 1506 1505 1505 1504 1503 1501 1500 1500 1499 1497 1495 1493 1492
1463 1469 1473 1474 1478 1483 1487 1490 1493 1496 1498 1500 1501 1508 1511 1514 1514 1514 1515 1518 1519 1520 1521 1522 1521 1525 1524 1519 1521 1522 1525 1520 1509 1505 1505 1506 1506 1507 1507 1507 1507 1507 1507 1506 1505 1504 1503 1502 1501 1500 1499 1498 1497 1495
1461 1466 1472 1476 1478 1483 1486 1489 1493 1494 1496 1499 1502 1503 1504 1507 1510 1512 1514 1516 1517 1519 1521 1520 1525 1522 1518 1523 1521 1512 1513 1506 1504 1504 1505 1506 1506 1506 1506 1507 1507 1507 1507 1507 1506 1505 1504 1503 1503 1503 1501 1500 1500 1499
1463 1467 1470 1476 1480 1484 1488 1488 1490 1493 1495 1499 1502 1502 1503 1506 1507 1510 1513 1514 1516 1517 1517 1519 1518 1520 1522 1522 1511 1502 1501 1502 1503 1505 1505 1505 1505 1505 1505 1506 1507 1508 1507 1506 1506 1506 1505 1504 1504 1504 1503 1503 1503 1502
1465 1468 1470 1475 1480 1485 1487 1490 1491 1490 1495 1499 1500 1501 1503 1506 1508 1509 1510 1512 1515 1516 1516 1515 1517 1517 1507 1500 1498 1498 1499 1500 1502 1504 1504 1504 1504 1505 1505 1506 1506 1506 1506 1506 1506 1506 1505 1504 1505 1505 1505 1505 1504 1504
1468 1470 1472 1476 1480 1483 1486 1489 1491 1493 1496 1498 1499 1500 1503 1506 1507 1508 1509 1512 1513 1513 1513 1510 1502 1497 1496 1496 1496 1496 1496 1498 1501 1502 1503 1502 1502 1503 1503 1504 1504 1505 1505 1505 1505 1505 1505 1507 1507 1507 1506 1506 1506 1506
1469 1471 1475 1479 1481 1483 1485 1487 1492 1494 1497 1498 1498 1501 1503 1505 1506 1506 1507 1509 1511 1507 1500 1494 1493 1493 1494 1494 1494 1495 1495 1497 1499 1501 1501 1500 1501 1501 1502 1502 1504 1504 1505 1505 1505 1505 1506 1507 1507 1507 1507 1507 1507 1507
1468 1473 1478 1479 1480 1483 1486 1488 1492 1495 1499 1499 1500 1500 1502 1502 1502 1504 1504 1505 1501 1492 1491 1488 1489 1490 1490 1491 1492 1493 1494 1496 1498 1500 1500 1499 1500 1501 1501 1502 1503 1504 1504 1505 1505 1505 1506 1506 1507 1507 1507 1508 1508 1508
1471 1476 1477 1478 1480 1483 1490 1491 1493 1496 1499 1500 1500 1500 1500 1500 1500 1502 1501 1497 1490 1485 1485 1485 1486 1486 1487 1488 1490 1490 1492 1494 1496 1498 1498 1498 1499 1500 1500 1501 1502 1503 1504 1504 1505 1505 1506 1506 1506 1507 1507 1508 1509 1509
1472 1475 1475 1477 1481 1487 1490 1492 1494 1496 1498 1499 1499 1500 1498 1498 1499 1500 1498 1488 1482 1481 1481 1481 1482 1483 1484 1486 1487 1489 1491 1493 1494 1495 1496 1497 1498 1499 1499 1500 1501 1502 1503 1504 1505 1506 1506 1507 1507 1507 1508 1508 1509 1510
1473 1478 1479 1480 1483 1486 1490 1493 1494 1495 1498 1499 1498 1497 1496 1498 1500 1500 1492 1480 1477 1477 1478 1479 1480 1481 1483 1484 1486 1488 1490 1491 1493 1494 1495 1495 1497 1498 1499 1500 1501 1502 1503 1504 1504 1505 1506 1507 1508 1508 1509 1509 1510 1511
1474 1479 1480 1481 1484 1486 1489 1493 1494 1494 1494 1497 1497 1495 1496 1497 1500 1494 1481 1476 1476 1476 1476 1477 1478 1480 1481 1483 1485 1487 1488 1490 1491 1493 1494 1495 1497 1498 1499 1500 1501 1502 1502 1503 1504 1505 1505 1506 1507 1508 1509 1510 1511 1511
1478 1480 1481 1482 1483 1484 1486 1487 1489 1490 1494 1494 1492 1495 1496 1498 1496 1478 1475 1475 1474 1474 1475 1476 1477 1479 1480 1482 1484 1486 1487 1489 1490 1492 1493 1495 1496 1497 1499 1500 1500 1501 1502 1503 1504 1504 1505 1506 1507 1508 1509 1510 1511 1512
1478 1480 1481 1482 1482 1483 1484 1486 1487 1488 1486 1486 1488 1492 1491 1485 1479 1475 1474 1474 1473 1473 1474 1475 1476 1478 1480 1481 1482 1484 1485 1487 1489 1490 1492 1493 1495 1496 1497 1498 1499 1500 1502 1503 1503 1504 1505 1506 1507 1508 1509 1510 1511 1512
1479 1480 1481 1482 1482 1483 1483 1483 1483 1484 1484 1485 1485 1482 1478 1476 1475 1474 1474 1473 1473 1472 1473 1474 1475 1476 1478 1479 1480 1482 1483 1485 1487 1488 1490 1492 1493 1495 1496 1497 1498 1500 1501 1502 1503 1504 1505 1506 1507 1508 1509 1510 1511 1511
1480 1480 1481 1481 1481 1483 1482 1483 1483 1482 1482 1482 1481 1479 1476 1473 1473 1472 1472 1471 1470 1470 1471 1471 1473 1474 1475 1477 1478 1479 1481 1483 1484 1487 1488 1490 1491 1493 1494 1495 1497 1498 1499 1500 1502 1503 1504 1506 1507 1507 1508 1509 1510 1510
1479 1480 1481 1481 1482 1482 1481 1481 1480 1479 1478 1477 1476 1475 1473 1471 1467 1465 1464 1464 1464 1465 1466 1467 1468 1470 1471 1473 1475 1477 1478 1480 1482 1484 1486 1488 1489 1491 1492 1494 1495 1497 1498 1500 1501 1502 1503 1505 1505 1506 1507 1507 1508 1509
1480 1480 1481 1481 1481 1481 1480 1479 1477 1476 1474 1473 1472 1471 1470 1468 1465 1462 1460 1460 1459 1459 1461 1462 1464 1466 1469 1470 1472 1473 1475 1477 1479 1481 1483 1485 1487 1489 1490 1492 1493 1495 1497 1498 1499 1501 1502 1503 1503 1504 1505 1505 1506 1506
1479 1479 1480 1480 1480 1479 1479 1478 1476 1475 1474 1472 1470 1469 1468 1467 1463 1461 1459 1458 1458 1457 1457 1457 1459 1460 1463 1465 1468 1470 1471 1474 1476 1478 1479 1482 1484 1486 1487 1489 1490 1492 1494 1495 1497 1498 1499 1500 1501 1501 1502 1502 1503 1503